Location: Shepherdstown, WV
(39.4326°N, 77.8042°W)
Time: 19:11:47
(UTC-04:00)

Vanguard 3 - Pass Details

Date: 02 August 2021
Orbit: 510 x 3260 km, 33.3° (Epoch: 18 September)

Event Time Altitude Azimuth Distance (km) Brightness Sun altitude
Rises 21:13:16 0° 267° (W) 6,071 12.6 -9.5°
Reaches altitude 10° 21:16:47 10° 266° (W) 5,342 12.2 -10.1°
Maximum altitude 21:34:10 71° 187° (S) 3,345 10.1 -12.9°
Enters shadow 21:51:51 14° 109° (ESE) 5,545 10.8 -15.6°
